Vertical_Velocity
1 -6 1 -2 1 -1 1 2 1 0 4 1 2 -2 -3 0 2 -0 -0 -1 -1 0 -0 -0 -0 2 1 -0 -0 2 1 -1 -0 0 1 -0 -1 -1 -0 1 2 -1 -2 -0 2 1 -3 -2 1
-3 -2 -0 3 -4 1 -3 -5 1 -0 0 5 0 3 -0 -2 2 0 0 -0 -1 -1 -1 1 -0 3 1 0 1 0 1 1 -1 -0 0 -0 -1 -1 -0 -0 -1 -0 0 -2 -0 0 2 0 -3
1 -1 0 -2 -4 -1 -4 -2 6 2 2 4 3 -1 1 -0 -0 0 -0 0 1 1 0 1 -0 0 1 1 2 -0 -0 1 1 -2 0 -1 -1 -0 -1 -1 -1 -0 -1 -3 -4 0 -6 -4 0
-1 -3 -2 -4 2 -3 -1 -3 -3 -2 2 0 0 -0 1 -2 1 -1 -1 -0 2 0 2 2 0 -0 -1 -2 1 0 -0 -1 1 1 -2 -1 0 0 1 -0 -1 -1 2 1 -1 1 8 -3 2
-3 -2 -5 -1 -3 -0 -4 2 3 -0 1 2 1 4 1 1 1 2 2 1 -0 -1 -0 1 1 -0 -0 -2 -1 0 0 -1 0 2 1 -1 -1 -2 1 1 1 0 -1 -2 -1 -2 -1 4 0
3 -2 -3 -1 1 -0 -3 5 3 1 -4 1 0 1 -1 2 -13 6 -3 -0 0 -0 0 -1 -0 -0 -1 -1 -1 -1 1 1 -1 1 3 1 0 0 -1 -1 -0 0 -0 1 1 2 0 -3 -2
2 1 5 -3 -0 1 -8 -0 1 2 0 3 -1 2 -0 8 -10 -2 1 -2 -1 0 -0 1 -1 -0 -0 1 -0 0 1 2 1 -0 0 2 1 -0 -1 0 -1 -2 -3 -2 -2 -4 -3 -2 -2
3 -3 0 -3 -0 -4 -3 -2 1 3 2 -3 -3 -1 2 3 7 -1 -2 -0 -2 0 0 -0 0 -1 -1 -1 1 1 2 -1 0 -1 2 1 1 -0 0 -1 0 -1 -1 -4 -2 -1 -0 1 1
-7 5 0 -3 -0 1 3 5 -1 -0 1 0 -2 -4 0 -0 9 1 3 4 -0 1 -0 0 -1 -1 -1 -1 1 1 -0 -0 -0 1 -1 0 0 0 -1 -0 -1 -0 -2 -0 -1 0 -3 -3 -4
-3 -0 -3 2 0 -2 1 -3 3 0 -1 1 -2 -3 -3 0 1 -0 -1 -1 0 2 -1 1 0 -1 -1 2 2 4 -1 1 -2 1 1 1 1 1 2 0 -1 0 -0 -2 -0 -2 -1 -2 -2
-0 -6 -6 1 0 -2 -4 -7 -9 -6 -5 -2 -1 -8 -5 0 -0 -3 -2 -1 -1 -1 4 -1 0 0 2 -1 2 4 1 1 3 -3 0 -0 2 3 2 3 0 1 3 2 1 -1 0 -0 -1
-1 -7 3 -1 -1 -2 3 -4 -1 6 1 1 3 3 -4 -1 3 4 2 5 1 -1 -0 -2 -2 -2 2 -1 5 1 1 0 -1 -1 1 1 2 -1 1 2 3 1 1 2 1 1 2 0 -1
-9 -2 -0 -0 10 3 -2 2 -2 -10 -2 -0 -4 -6 -1 -3 -1 0 2 0 10 1 -3 0 2 2 -0 -1 -1 -0 1 3 1 1 1 -2 1 0 -0 -1 3 1 3 0 1 1 0 2 1
-9 -0 -1 1 3 2 -1 5 2 -6 4 0 -1 -1 5 6 -11 -1 -0 3 -5 7 -5 -2 3 1 -1 2 -0 2 1 -1 2 2 2 2 -1 1 5 1 -0 -1 1 1 0 2 1 1 0
0 1 2 -7 7 2 2 -0 -1 -7 3 13 1 -1 -1 -2 2 18 -5 2 0 -4 2 1 -3 3 1 3 2 3 0 3 -2 3 -2 -0 -2 4 0 2 3 1 -3 -3 1 1 -0 0 -0
-5 -1 1 1 1 -1 1 -5 -7 1 4 -2 4 1 -9 14 7 -6 12 -3 -4 -2 0 -2 1 -1 1 -3 1 -3 -2 2 -0 1 1 2 1 -2 1 -0 -1 3 6 1 5 7 6 -0 -1
-3 -2 2 -7 1 6 -3 -7 -5 -3 2 6 5 -2 1 -0 -3 -3 7 -9 -2 1 -6 -8 -2 1 2 -1 -2 -1 -2 3 -2 -4 -2 -3 1 -2 0 2 2 -0 7 2 4 4 2 2 -1
-2 6 1 -5 -1 -5 -2 -11 -1 3 8 9 -3 14 3 -2 -4 2 -0 -4 -3 2 1 -5 2 3 -1 3 -1 -2 -2 -2 12 1 2 1 5 6 1 1 -2 -2 -5 -3 1 3 6 3 3
-0 0 -3 2 -0 -0 -4 2 4 -10 -1 9 -0 3 16 11 -3 -1 5 -1 2 2 4 -9 10 -2 -1 2 -2 -4 8 -3 8 4 2 -1 1 3 0 5 -1 2 2 2 -2 -1 2 2 -0
2 0 0 -1 -5 -10 -13 2 5 -3 5 4 3 1 -3 -0 9 4 6 -5 -4 -2 3 -0 -2 0 6 5 -1 -0 -4 -4 0 -0 1 2 2 2 -5 -1 -1 3 4 1 4 2 -0 4 2
-1 2 1 9 1 0 -10 -6 3 3 -3 -4 -2 5 4 -2 5 7 1 -3 -4 -4 -3 -1 3 1 5 -0 2 0 5 4 -1 -5 1 2 4 -7 1 3 -1 -4 -0 2 1 -1 1 1 3
-3 -4 -1 4 0 -7 -2 -4 1 -0 5 -7 0 1 1 0 2 10 0 -1 -3 -2 -1 1 5 5 2 -5 8 4 2 -2 -0 -3 -1 1 3 -4 -7 -11 -9 -5 -2 1 -1 -3 -1 -0 5
2 -10 8 16 7 -5 1 -1 -7 -8 -5 -7 1 4 -1 7 7 6 2 0 2 -1 0 4 4 5 -2 -3 -8 6 2 -5 -1 -3 1 1 0 -4 -1 5 -13 -11 -2 -1 -1 -2 -3 0 5
9 1 -8 11 -4 1 -1 4 19 11 -3 -4 -6 5 -13 5 6 3 -3 -6 -1 2 2 1 1 -3 -2 -3 -2 3 0 -5 3 -2 -0 5 4 3 7 -3 7 1 -7 6 -0 1 2 -1 -2
6 3 1 -1 -3 5 -2 -2 1 -7 9 -0 -4 -1 -3 -5 -0 -5 3 -3 -2 5 5 6 -3 3 -2 1 -5 2 -0 2 4 -4 -6 -2 7 6 1 1 0 -6 -2 -2 -4 -2 2 2 -1
8 -3 3 -5 1 17 -4 -1 -4 -4 3 -2 -6 -0 -2 3 3 1 -5 3 1 -2 6 -2 9 12 6 1 6 -4 -4 0 -0 -2 1 -3 -8 -0 1 3 1 -0 -1 -1 -1 4 1 -1 1
9 -8 12 -1 2 3 0 3 -2 -9 -3 1 -9 -4 -3 -6 -11 -4 7 -0 0 1 -5 0 1 24 -2 0 1 -2 -0 1 0 2 1 1 3 1 -0 1 3 3 1 -0 1 3 4 1 4
-6 11 5 1 3 3 2 -7 -9 -9 -12 6 -1 -0 -3 7 -3 -8 -1 -6 -5 10 8 -2 0 10 -5 3 1 1 2 3 1 -0 2 0 1 3 3 4 2 2 3 2 -2 2 4 2 0
1 -0 5 0 -0 3 -0 2 -4 -5 -4 -8 0 3 8 5 4 1 -0 -1 -7 27 6 45 8 -3 1 1 3 4 1 0 3 2 0 1 2 2 2 1 1 -0 -1 -2 -1 -1 -3 -2 -2
-3 8 11 -2 6 0 7 -1 -10 1 -6 -8 2 6 -8 -3 -0 -1 3 5 -10 -6 5 15 1 0 1 3 2 1 2 2 2 3 2 1 1 -0 1 -0 -1 -1 1 1 2 1 0 -2 -0
Height
5916 5915 5914 5912 5915 5911 5909 5910 5907 5907 5907 5905 5904 5902 5903 5901 5901 5904 5902 5901 5900 5899 5898 5898 5898 5898 5897 5897 5896 5895 5895 5894 5895 5894 5893 5893 5893 5892 5892 5892 5893 5895 5895 5894 5894 5894 5895 5895 5895
5919 5918 5917 5916 5913 5911 5910 5908 5911 5910 5909 5909 5907 5906 5904 5903 5903 5902 5902 5903 5903 5902 5901 5900 5900 5899 5899 5899 5898 5897 5897 5896 5896 5897 5897 5896 5896 5896 5896 5895 5895 5895 5896 5897 5898 5897 5898 5897 5897
5921 5920 5921 5916 5915 5916 5912 5911 5914 5913 5912 5912 5910 5908 5906 5905 5903 5904 5903 5903 5903 5904 5904 5903 5903 5902 5901 5901 5900 5899 5899 5899 5898 5899 5899 5898 5898 5898 5897 5898 5898 5898 5897 5897 5897 5897 5899 5897 5898
5922 5923 5922 5915 5918 5917 5915 5913 5912 5912 5912 5912 5912 5911 5909 5907 5904 5904 5904 5904 5904 5904 5905 5905 5904 5904 5903 5902 5901 5901 5900 5900 5900 5900 5900 5899 5899 5900 5899 5899 5898 5898 5899 5898 5898 5899 5900 5902 5900
5923 5923 5920 5920 5919 5919 5917 5917 5915 5912 5914 5913 5912 5913 5911 5909 5906 5905 5905 5905 5904 5904 5905 5905 5904 5903 5904 5904 5903 5903 5903 5902 5901 5900 5900 5900 5899 5900 5900 5900 5900 5899 5898 5898 5899 5901 5904 5902 5902
5927 5924 5923 5921 5922 5921 5918 5919 5917 5915 5912 5912 5912 5913 5911 5908 5902 5906 5904 5904 5905 5905 5905 5905 5904 5903 5904 5905 5905 5905 5905 5904 5902 5901 5901 5901 5900 5901 5901 5902 5902 5902 5902 5902 5902 5903 5904 5905 5904
5929 5926 5925 5923 5923 5923 5918 5918 5918 5917 5915 5913 5911 5912 5912 5910 5901 5904 5904 5904 5905 5906 5906 5906 5905 5905 5905 5905 5906 5906 5906 5906 5904 5903 5903 5903 5902 5903 5903 5903 5904 5903 5903 5903 5904 5904 5904 5904 5903
5929 5927 5927 5926 5926 5923 5921 5919 5919 5918 5916 5912 5910 5909 5911 5911 5909 5905 5905 5906 5906 5907 5907 5906 5906 5906 5906 5907 5907 5907 5907 5907 5906 5906 5906 5905 5905 5905 5905 5905 5906 5906 5905 5905 5905 5905 5905 5906 5908
5927 5930 5929 5929 5928 5924 5923 5921 5919 5917 5914 5911 5908 5906 5908 5908 5909 5907 5907 5908 5907 5908 5907 5906 5907 5906 5907 5909 5908 5908 5907 5907 5909 5908 5908 5908 5908 5908 5908 5908 5908 5908 5908 5908 5908 5909 5908 5907 5906
5929 5931 5931 5932 5928 5924 5922 5920 5920 5918 5914 5910 5907 5905 5905 5906 5907 5906 5905 5906 5907 5907 5907 5907 5907 5908 5909 5909 5909 5908 5907 5907 5909 5910 5910 5911 5910 5910 5910 5911 5911 5910 5910 5909 5909 5909 5910 5909 5909
5932 5932 5932 5931 5928 5925 5923 5921 5918 5917 5914 5912 5910 5906 5906 5905 5905 5905 5906 5905 5905 5906 5907 5906 5908 5908 5910 5909 5909 5907 5907 5908 5909 5911 5912 5913 5913 5912 5912 5913 5913 5912 5912 5912 5911 5910 5910 5910 5911
5934 5933 5933 5933 5930 5928 5925 5921 5920 5919 5917 5914 5913 5909 5904 5906 5906 5906 5906 5907 5907 5906 5904 5904 5906 5908 5909 5909 5909 5908 5908 5909 5911 5912 5914 5914 5914 5915 5914 5914 5914 5913 5914 5913 5913 5913 5913 5913 5912
5933 5935 5935 5934 5934 5930 5926 5924 5921 5918 5917 5913 5911 5907 5905 5903 5903 5903 5905 5906 5908 5908 5907 5907 5909 5910 5908 5908 5908 5909 5910 5910 5912 5912 5914 5914 5914 5914 5915 5916 5916 5914 5913 5913 5914 5914 5913 5913 5912
5934 5937 5934 5933 5933 5930 5928 5927 5924 5923 5922 5916 5912 5909 5907 5903 5898 5898 5902 5903 5903 5909 5907 5907 5909 5909 5908 5910 5910 5910 5910 5908 5909 5911 5913 5914 5913 5912 5913 5915 5915 5914 5913 5912 5914 5914 5913 5912 5913
5935 5937 5937 5935 5934 5931 5931 5926 5924 5922 5922 5920 5914 5910 5905 5898 5895 5892 5895 5901 5902 5905 5908 5907 5905 5908 5908 5910 5911 5910 5910 5908 5907 5910 5910 5911 5912 5912 5913 5914 5914 5913 5912 5912 5914 5915 5914 5913 5913
5934 5936 5937 5938 5937 5934 5930 5924 5924 5925 5924 5920 5916 5910 5902 5895 5896 5888 5892 5898 5899 5902 5904 5903 5904 5907 5908 5910 5910 5908 5909 5908 5908 5908 5909 5910 5910 5910 5912 5915 5915 5913 5911 5913 5915 5914 5914 5913 5915
5933 5935 5936 5936 5938 5935 5930 5926 5927 5926 5924 5923 5916 5909 5904 5902 5899 5898 5898 5896 5898 5899 5897 5900 5904 5905 5909 5910 5911 5910 5909 5909 5907 5905 5907 5907 5908 5910 5913 5915 5916 5915 5911 5912 5915 5916 5912 5912 5914
5934 5935 5935 5934 5934 5932 5929 5929 5926 5925 5926 5924 5916 5911 5906 5902 5901 5901 5899 5898 5896 5898 5899 5901 5905 5906 5908 5912 5910 5910 5910 5908 5910 5908 5907 5907 5910 5912 5913 5914 5915 5915 5915 5913 5913 5914 5915 5912 5912
5932 5932 5935 5937 5935 5932 5930 5930 5927 5928 5927 5928 5920 5915 5910 5905 5901 5901 5903 5900 5898 5899 5900 5900 5903 5904 5907 5909 5909 5911 5910 5909 5908 5909 5909 5910 5912 5915 5915 5914 5914 5915 5916 5917 5915 5913 5914 5915 5913
5931 5931 5932 5933 5930 5931 5929 5929 5928 5927 5928 5926 5920 5916 5913 5908 5904 5903 5904 5898 5895 5897 5898 5900 5901 5904 5906 5909 5908 5909 5909 5909 5909 5911 5910 5913 5915 5916 5915 5915 5913 5913 5912 5914 5914 5914 5912 5914 5914
5928 5931 5930 5931 5928 5929 5927 5929 5929 5928 5926 5923 5920 5918 5915 5910 5907 5905 5905 5901 5898 5896 5895 5897 5900 5903 5907 5908 5908 5907 5908 5910 5910 5911 5912 5914 5912 5912 5914 5913 5912 5913 5913 5911 5912 5912 5912 5912 5912
5927 5929 5929 5928 5924 5926 5928 5928 5928 5925 5923 5919 5918 5916 5916 5913 5905 5907 5907 5905 5903 5902 5900 5900 5900 5903 5904 5905 5906 5908 5909 5910 5909 5911 5912 5911 5909 5910 5910 5911 5911 5912 5910 5910 5910 5911 5910 5911 5908
5926 5924 5925 5930 5930 5928 5930 5928 5926 5925 5921 5915 5914 5913 5915 5910 5907 5909 5905 5905 5903 5903 5901 5901 5902 5901 5901 5904 5906 5910 5908 5907 5906 5906 5907 5908 5907 5905 5906 5908 5906 5908 5907 5906 5906 5908 5908 5907 5906
5922 5923 5921 5927 5927 5929 5929 5928 5929 5927 5925 5919 5912 5910 5905 5910 5909 5906 5904 5905 5906 5906 5906 5905 5902 5901 5903 5905 5905 5907 5906 5904 5904 5901 5902 5904 5904 5904 5903 5902 5902 5904 5905 5905 5905 5905 5904 5904 5902
5921 5922 5923 5924 5926 5927 5927 5926 5924 5922 5924 5919 5915 5911 5905 5903 5906 5906 5905 5904 5905 5905 5905 5905 5901 5903 5904 5903 5905 5905 5904 5903 5902 5898 5897 5898 5897 5897 5901 5900 5899 5899 5900 5901 5901 5900 5901 5900 5899
5919 5920 5920 5921 5923 5925 5923 5923 5925 5922 5920 5919 5914 5913 5911 5906 5906 5906 5905 5906 5905 5906 5907 5903 5904 5904 5903 5903 5904 5904 5903 5900 5898 5897 5896 5896 5894 5895 5897 5897 5897 5896 5897 5898 5898 5898 5898 5897 5895
5915 5914 5918 5919 5920 5921 5920 5920 5918 5920 5919 5918 5915 5910 5909 5906 5904 5905 5906 5905 5904 5903 5902 5904 5903 5901 5902 5901 5901 5901 5901 5899 5897 5895 5894 5894 5895 5896 5896 5896 5897 5898 5898 5896 5895 5896 5895 5893 5891
5908 5914 5914 5915 5916 5915 5914 5913 5916 5917 5914 5916 5915 5912 5909 5908 5904 5903 5902 5902 5900 5900 5899 5900 5901 5900 5900 5900 5899 5898 5898 5897 5896 5895 5895 5894 5894 5894 5894 5894 5894 5893 5892 5892 5891 5889 5889 5887 5886
5906 5906 5909 5911 5912 5912 5910 5910 5910 5911 5910 5910 5907 5907 5910 5907 5906 5904 5901 5902 5901 5897 5899 5897 5900 5899 5899 5898 5897 5896 5895 5895 5895 5894 5893 5892 5892 5891 5891 5890 5890 5888 5887 5885 5884 5883 5883 5881 5879
5899 5901 5905 5905 5909 5910 5909 5910 5907 5906 5906 5910 5901 5897 5904 5905 5906 5904 5901 5902 5902 5899 5899 5898 5898 5897 5897 5897 5895 5894 5893 5892 5891 5891 5891 5889 5889 5888 5887 5886 5885 5884 5882 5881 5881 5879 5877 5875 5873